Location: Strawberry
(45.6646°N, 111.9596°W)
Time: 23:07:15
(UTC+00:00)

Courier 1B Rocket - Pass Details

Date: 06 October 2022
Orbit: 920 x 1202 km, 28.3° (Epoch: 03 December)

Event Time Altitude Azimuth Distance (km) Brightness Sun altitude
Rises 04:08:42 0° 244° (WSW) 3,710 8.4 -32.7°
Reaches altitude 10° 04:12:47 10° 221° (SW) 2,704 7.4 -33.3°
Enters shadow 04:13:26 11° 216° (SW) 2,591 7.2 -33.4°
Maximum altitude 04:16:04 14° 190° (S) 2,359 - -33.8°
Drops below altitude 10° 04:19:17 10° 159° (SSE) 2,635 - -34.2°
Sets 04:23:09 0° 136° (SE) 3,552 - -34.8°
